| time (UTC) | temp C | wind direction | speed KPH | gust KPH | rain 1hr cm | rain 24hr cm | rain mn cm | humidity % | barometer mb |
| 20260502183209 | 23 | 6 | 4.8 | 20.9 | 0.00 | 0.00 | 0.00 | 42 | 1034.7 |
| 20260502182704 | 22 | 35 | 6.4 | 14.5 | 0.00 | 0.00 | 0.00 | 41 | 1034.8 |
| 20260502182200 | 22 | 335 | 12.9 | 17.7 | 0.00 | 0.00 | 0.00 | 41 | 1035.1 |
| 20260502181657 | 22 | 7 | 9.7 | 11.3 | 0.00 | 0.00 | 0.00 | 42 | 1035.1 |
| 20260502181156 | 22 | 329 | 3.2 | 11.3 | 0.00 | 0.00 | 0.00 | 43 | 1035.0 |
| 20260502180653 | 22 | 236 | 1.6 | 6.4 | 0.00 | 0.00 | 0.00 | 46 | 1034.9 |
| 20260502180150 | 22 | 13 | 8.0 | 11.3 | 0.00 | 0.00 | 0.00 | 46 | 1034.9 |
| 20260502170114 | 18 | 48 | 0.0 | 3.2 | 0.00 | 0.00 | 0.00 | 64 | 1035.7 |
| 20260502164101 | 17 | 57 | 1.6 | 3.2 | 0.00 | 0.00 | 0.00 | 70 | 1036.0 |
| 20260502163556 | 16 | 56 | 0.0 | 4.8 | 0.00 | 0.00 | 0.00 | 70 | 1036.1 |
| 20260502163054 | 16 | 78 | 1.6 | 3.2 | 0.00 | 0.00 | 0.00 | 71 | 1036.2 |
| 20260502162550 | 16 | 73 | 0.0 | 0.0 | 0.00 | 0.00 | 0.00 | 73 | 1036.2 |
| 20260502162048 | 16 | 69 | 1.6 | 1.6 | 0.00 | 0.00 | 0.00 | 76 | 1036.3 |
| 20260502161544 | 16 | 64 | 3.2 | 3.2 | 0.00 | 0.00 | 0.00 | 76 | 1036.2 |
| 20260502161042 | 15 | 62 | 0.0 | 0.0 | 0.00 | 0.00 | 0.00 | 80 | 1036.5 |
| 20260502160540 | 15 | 62 | 0.0 | 0.0 | 0.00 | 0.00 | 0.00 | 85 | 1036.4 |
| 20260502151953 | 12 | 73 | 0.0 | 0.0 | 0.00 | 0.00 | 0.00 | 91 | 1036.5 |
| 20260502151449 | 11 | 112 | 1.6 | 1.6 | 0.00 | 0.00 | 0.00 | 93 | 1036.5 |
| 20260502150947 | 10 | 90 | 0.0 | 0.0 | 0.00 | 0.00 | 0.00 | 98 | 1036.5 |
| 20260502150444 | 10 | 90 | 0.0 | 0.0 | 0.00 | 0.00 | 0.00 | 98 | 1036.3 |
| 20260502130329 | 7 | 61 | 0.0 | 0.0 | 0.00 | 0.00 | 0.00 | 99 | 1035.7 |
| 20260502123815 | 7 | 123 | 0.0 | 0.0 | 0.00 | 0.00 | 0.00 | 99 | 1035.4 |
| 20260502123312 | 7 | 105 | 0.0 | 0.0 | 0.00 | 0.00 | 0.00 | 99 | 1035.6 |
| 20260502122809 | 7 | 86 | 0.0 | 0.0 | 0.00 | 0.00 | 0.00 | 99 | 1035.6 |
| 20260502122306 | 7 | 44 | 0.0 | 0.0 | 0.00 | 0.00 | 0.00 | 99 | 1035.4 |
| 20260502121803 | 7 | 30 | 0.0 | 0.0 | 0.00 | 0.00 | 0.00 | 99 | 1035.3 |
| 20260502121300 | 7 | 64 | 0.0 | 0.0 | 0.00 | 0.00 | 0.00 | 99 | 1035.5 |
| 20260502120757 | 7 | 62 | 0.0 | 0.0 | 0.00 | 0.00 | 0.00 | 99 | 1035.2 |
| 20260502120253 | 7 | 58 | 0.0 | 0.0 | 0.00 | 0.00 | 0.00 | 99 | 1035.3 |
| 20260502115751 | 7 | 70 | 0.0 | 0.0 | 0.00 | 0.00 | 0.00 | 99 | 1035.3 |
| 20260502115248 | 7 | 8 | 0.0 | 0.0 | 0.00 | 0.00 | 0.00 | 99 | 1035.1 |
| 20260502114744 | 7 | 4 | 0.0 | 0.0 | 0.00 | 0.00 | 0.00 | 99 | 1035.0 |
| 20260502114241 | 7 | 5 | 0.0 | 0.0 | 0.00 | 0.00 | 0.00 | 99 | 1035.4 |
| 20260502113738 | 8 | 4 | 0.0 | 0.0 | 0.00 | 0.00 | 0.00 | 99 | 1035.3 |
| 20260502113236 | 7 | 5 | 0.0 | 0.0 | 0.00 | 0.00 | 0.00 | 99 | 1035.3 |
| 20260502112734 | 8 | 4 | 0.0 | 0.0 | 0.00 | 0.00 | 0.00 | 99 | 1035.1 |
| 20260502112231 | 8 | 4 | 0.0 | 0.0 | 0.00 | 0.00 | 0.00 | 99 | 1035.2 |
| 20260502111728 | 7 | 4 | 0.0 | 0.0 | 0.00 | 0.00 | 0.00 | 99 | 1035.2 |
| 20260502111226 | 7 | 4 | 0.0 | 0.0 | 0.00 | 0.00 | 0.00 | 99 | 1035.1 |
| 20260502110723 | 8 | 4 | 0.0 | 0.0 | 0.00 | 0.00 | 0.00 | 99 | 1035.1 |
| 20260502110221 | 8 | 4 | 0.0 | 0.0 | 0.00 | 0.00 | 0.00 | 99 | 1035.0 |
| 20260502105719 | 8 | 4 | 0.0 | 0.0 | 0.00 | 0.00 | 0.00 | 98 | 1035.0 |
| 20260502105215 | 8 | 4 | 0.0 | 0.0 | 0.00 | 0.00 | 0.00 | 98 | 1035.1 |
| 20260502104712 | 8 | 4 | 0.0 | 0.0 | 0.00 | 0.00 | 0.00 | 98 | 1035.0 |
| 20260502104210 | 8 | 4 | 0.0 | 0.0 | 0.00 | 0.00 | 0.00 | 98 | 1035.1 |
| 20260502103707 | 8 | 4 | 0.0 | 0.0 | 0.00 | 0.00 | 0.00 | 98 | 1034.9 |
| 20260502103205 | 8 | 4 | 0.0 | 0.0 | 0.00 | 0.00 | 0.00 | 98 | 1035.0 |
| 20260502102701 | 8 | 4 | 0.0 | 0.0 | 0.00 | 0.00 | 0.00 | 98 | 1034.9 |
| 20260502102158 | 9 | 4 | 0.0 | 0.0 | 0.00 | 0.00 | 0.00 | 97 | 1035.1 |
| 20260502101656 | 9 | 4 | 0.0 | 0.0 | 0.00 | 0.00 | 0.00 | 97 | 1034.9 |
| 20260502101154 | 9 | 19 | 0.0 | 0.0 | 0.00 | 0.00 | 0.00 | 97 | 1035.0 |
| 20260502100652 | 10 | 19 | 0.0 | 0.0 | 0.00 | 0.00 | 0.00 | 97 | 1035.0 |
| 20260502100150 | 10 | 19 | 0.0 | 0.0 | 0.00 | 0.00 | 0.00 | 97 | 1035.0 |
| 20260502091124 | 10 | 19 | 0.0 | 0.0 | 0.00 | 0.00 | 0.00 | 95 | 1035.0 |
| 20260502090621 | 10 | 19 | 0.0 | 0.0 | 0.00 | 0.00 | 0.00 | 94 | 1034.8 |
| 20260502090119 | 11 | 19 | 0.0 | 0.0 | 0.00 | 0.00 | 0.00 | 94 | 1035.0 |
| 20260502071516 | 12 | 18 | 0.0 | 0.0 | 0.00 | 0.00 | 0.00 | 87 | 1034.5 |
| 20260502071014 | 12 | 18 | 0.0 | 1.6 | 0.00 | 0.00 | 0.00 | 87 | 1034.3 |
| 20260502070511 | 12 | 18 | 0.0 | 1.6 | 0.00 | 0.00 | 0.00 | 87 | 1034.5 |
| 20260502070010 | 13 | 25 | 1.6 | 3.2 | 0.00 | 0.00 | 0.00 | 86 | 1034.5 |
| 20260502065508 | 13 | 55 | 0.0 | 0.0 | 0.00 | 0.00 | 0.00 | 85 | 1034.4 |
| 20260502065006 | 13 | 56 | 0.0 | 1.6 | 0.00 | 0.00 | 0.00 | 84 | 1034.5 |
| 20260502064504 | 13 | 56 | 0.0 | 0.0 | 0.00 | 0.00 | 0.00 | 84 | 1034.5 |
| 20260502064000 | 13 | 57 | 0.0 | 0.0 | 0.00 | 0.00 | 0.00 | 84 | 1034.4 |
| 20260502063459 | 13 | 56 | 0.0 | 1.6 | 0.00 | 0.00 | 0.00 | 84 | 1034.3 |
| 20260502062955 | 13 | 22 | 0.0 | 1.6 | 0.00 | 0.00 | 0.00 | 83 | 1034.4 |
| 20260502062452 | 13 | 178 | 1.6 | 1.6 | 0.00 | 0.00 | 0.00 | 83 | 1034.2 |
| 20260502061951 | 13 | 177 | 1.6 | 1.6 | 0.00 | 0.00 | 0.00 | 82 | 1034.2 |
| 20260502061449 | 14 | 178 | 0.0 | 0.0 | 0.00 | 0.00 | 0.00 | 81 | 1033.9 |
| 20260502060944 | 15 | 187 | 0.0 | 1.6 | 0.00 | 0.00 | 0.00 | 80 | 1034.1 |
| 20260502060440 | 15 | 192 | 1.6 | 3.2 | 0.00 | 0.00 | 0.00 | 81 | 1034.2 |
| 20260502055937 | 15 | 226 | 1.6 | 3.2 | 0.00 | 0.00 | 0.00 | 79 | 1034.1 |
| 20260502055435 | 15 | 160 | 0.0 | 1.6 | 0.00 | 0.00 | 0.00 | 76 | 1034.0 |
| 20260502054929 | 16 | 175 | 6.4 | 12.9 | 0.00 | 0.00 | 0.00 | 70 | 1034.2 |
| 20260502054426 | 16 | 192 | 0.0 | 3.2 | 0.00 | 0.00 | 0.00 | 70 | 1034.2 |
| 20260502053924 | 16 | 197 | 6.4 | 11.3 | 0.00 | 0.00 | 0.00 | 68 | 1034.1 |
| 20260502053421 | 16 | 167 | 4.8 | 11.3 | 0.00 | 0.00 | 0.00 | 69 | 1034.1 |
| 20260502052918 | 16 | 171 | 6.4 | 12.9 | 0.00 | 0.00 | 0.00 | 69 | 1034.2 |
| 20260502052416 | 15 | 164 | 6.4 | 11.3 | 0.00 | 0.00 | 0.00 | 73 | 1034.2 |
| 20260502051914 | 15 | 185 | 3.2 | 6.4 | 0.00 | 0.00 | 0.00 | 80 | 1034.2 |
| 20260502051412 | 14 | 161 | 3.2 | 9.7 | 0.00 | 0.00 | 0.00 | 82 | 1034.2 |
| 20260502050909 | 13 | 358 | 0.0 | 1.6 | 0.00 | 0.00 | 0.00 | 85 | 1034.2 |
| 20260502050405 | 13 | 358 | 0.0 | 0.0 | 0.00 | 0.00 | 0.00 | 84 | 1034.2 |
| 20260502045903 | 14 | 358 | 0.0 | 0.0 | 0.00 | 0.00 | 0.00 | 83 | 1034.0 |
| 20260502045359 | 14 | 358 | 0.0 | 1.6 | 0.00 | 0.00 | 0.00 | 83 | 1034.0 |
| 20260502044856 | 14 | 358 | 0.0 | 0.0 | 0.00 | 0.00 | 0.00 | 83 | 1033.4 |
| 20260502044351 | 14 | 357 | 0.0 | 0.0 | 0.00 | 0.00 | 0.00 | 83 | 1033.8 |
| 20260502043843 | 14 | 358 | 0.0 | 0.0 | 0.00 | 0.00 | 0.00 | 82 | 1033.5 |
| 20260502043341 | 14 | 358 | 1.6 | 1.6 | 0.00 | 0.00 | 0.00 | 82 | 1033.9 |
| 20260502042840 | 15 | 358 | 0.0 | 0.0 | 0.00 | 0.00 | 0.00 | 81 | 1033.5 |
| 20260502042338 | 15 | 358 | 0.0 | 0.0 | 0.00 | 0.00 | 0.00 | 79 | 1033.5 |
| 20260502041835 | 15 | 357 | 0.0 | 0.0 | 0.00 | 0.00 | 0.00 | 79 | 1033.8 |
| 20260502041332 | 15 | 357 | 0.0 | 0.0 | 0.00 | 0.00 | 0.00 | 78 | 1033.7 |
| 20260502040830 | 15 | 357 | 0.0 | 1.6 | 0.00 | 0.00 | 0.00 | 77 | 1033.3 |
| 20260502040326 | 16 | 357 | 3.2 | 3.2 | 0.00 | 0.00 | 0.00 | 77 | 1033.3 |
| 20260502035822 | 16 | 358 | 0.0 | 0.0 | 0.00 | 0.00 | 0.00 | 74 | 1033.2 |
| 20260502035319 | 16 | 358 | 0.0 | 0.0 | 0.00 | 0.00 | 0.00 | 74 | 1033.3 |
| 20260502034817 | 16 | 358 | 0.0 | 1.6 | 0.00 | 0.00 | 0.00 | 72 | 1033.2 |
| 20260502034315 | 17 | 357 | 1.6 | 3.2 | 0.00 | 0.00 | 0.00 | 71 | 1033.1 |
| 20260502033813 | 17 | 358 | 1.6 | 1.6 | 0.00 | 0.00 | 0.00 | 70 | 1033.1 |
| 20260502033310 | 17 | 358 | 1.6 | 1.6 | 0.00 | 0.00 | 0.00 | 68 | 1033.0 |
| 20260502032807 | 17 | 358 | 1.6 | 1.6 | 0.00 | 0.00 | 0.00 | 68 | 1032.8 |
| 20260502032305 | 18 | 358 | 1.6 | 3.2 | 0.00 | 0.00 | 0.00 | 66 | 1033.0 |
| 20260502031801 | 18 | 340 | 0.0 | 1.6 | 0.00 | 0.00 | 0.00 | 66 | 1032.9 |
| 20260502031259 | 18 | 340 | 0.0 | 1.6 | 0.00 | 0.00 | 0.00 | 64 | 1032.9 |
| 20260502030757 | 19 | 346 | 3.2 | 4.8 | 0.00 | 0.00 | 0.00 | 60 | 1032.9 |
| 20260502030254 | 20 | 352 | 8.0 | 9.7 | 0.00 | 0.00 | 0.00 | 59 | 1033.0 |
| 20260502025752 | 20 | 0 | 4.8 | 11.3 | 0.00 | 0.00 | 0.00 | 59 | 1032.9 |
| 20260502025250 | 20 | 346 | 4.8 | 9.7 | 0.00 | 0.00 | 0.00 | 59 | 1032.8 |
| 20260502024747 | 20 | 29 | 6.4 | 9.7 | 0.00 | 0.00 | 0.00 | 58 | 1032.7 |
| 20260502024245 | 20 | 348 | 3.2 | 4.8 | 0.00 | 0.00 | 0.00 | 59 | 1032.5 |
| 20260502023743 | 20 | 322 | 11.3 | 14.5 | 0.00 | 0.00 | 0.00 | 59 | 1032.7 |
| 20260502023240 | 20 | 356 | 6.4 | 11.3 | 0.00 | 0.00 | 0.00 | 61 | 1032.6 |
| 20260502022738 | 20 | 39 | 3.2 | 9.7 | 0.00 | 0.00 | 0.00 | 61 | 1032.6 |
| 20260502022233 | 20 | 4 | 6.4 | 12.9 | 0.00 | 0.00 | 0.00 | 61 | 1032.7 |
| 20260502021731 | 20 | 18 | 9.7 | 11.3 | 0.00 | 0.00 | 0.00 | 60 | 1032.6 |
| 20260502021228 | 21 | 7 | 6.4 | 16.1 | 0.00 | 0.00 | 0.00 | 60 | 1032.5 |
| 20260502020725 | 21 | 348 | 8.0 | 12.9 | 0.00 | 0.00 | 0.00 | 60 | 1032.6 |
| 20260502020222 | 21 | 351 | 6.4 | 9.7 | 0.00 | 0.00 | 0.00 | 60 | 1032.6 |
| 20260502015720 | 21 | 17 | 6.4 | 9.7 | 0.00 | 0.00 | 0.00 | 59 | 1032.6 |
| 20260502015216 | 21 | 358 | 6.4 | 12.9 | 0.00 | 0.00 | 0.00 | 59 | 1032.6 |
| 20260502014714 | 22 | 353 | 8.0 | 9.7 | 0.00 | 0.00 | 0.00 | 58 | 1032.6 |
| 20260502014211 | 22 | 344 | 8.0 | 12.9 | 0.00 | 0.00 | 0.00 | 56 | 1032.3 |
| 20260502013707 | 22 | 9 | 8.0 | 11.3 | 0.00 | 0.00 | 0.00 | 54 | 1032.4 |
| 20260502013202 | 23 | 336 | 8.0 | 11.3 | 0.00 | 0.00 | 0.00 | 53 | 1032.6 |
| 20260502012700 | 23 | 355 | 6.4 | 11.3 | 0.00 | 0.00 | 0.00 | 50 | 1032.7 |
| 20260502012158 | 23 | 9 | 4.8 | 6.4 | 0.00 | 0.00 | 0.00 | 48 | 1032.6 |
| 20260502011654 | 23 | 4 | 3.2 | 11.3 | 0.00 | 0.00 | 0.00 | 49 | 1032.5 |
| 20260502011150 | 23 | 357 | 0.0 | 6.4 | 0.00 | 0.00 | 0.00 | 46 | 1032.5 |
| 20260502010648 | 23 | 32 | 1.6 | 3.2 | 0.00 | 0.00 | 0.00 | 50 | 1032.6 |
| 20260502010144 | 23 | 259 | 1.6 | 4.8 | 0.00 | 0.00 | 0.00 | 49 | 1032.3 |
| 20260502005641 | 23 | 341 | 6.4 | 11.3 | 0.00 | 0.00 | 0.00 | 46 | 1032.6 |
| 20260502005139 | 23 | 350 | 4.8 | 9.7 | 0.00 | 0.00 | 0.00 | 50 | 1032.6 |
| 20260502004635 | 23 | 6 | 6.4 | 6.4 | 0.00 | 0.00 | 0.00 | 48 | 1032.5 |
| 20260502004132 | 23 | 25 | 6.4 | 9.7 | 0.00 | 0.00 | 0.00 | 48 | 1032.4 |
| 20260502003630 | 24 | 333 | 4.8 | 6.4 | 0.00 | 0.00 | 0.00 | 48 | 1032.6 |
| 20260502003126 | 24 | 37 | 1.6 | 3.2 | 0.00 | 0.00 | 0.00 | 46 | 1032.6 |
| 20260502002622 | 24 | 222 | 6.4 | 9.7 | 0.00 | 0.00 | 0.00 | 47 | 1032.6 |
| 20260502002120 | 25 | 41 | 1.6 | 4.8 | 0.00 | 0.00 | 0.00 | 46 | 1032.7 |
| 20260502001618 | 24 | 90 | 1.6 | 3.2 | 0.00 | 0.00 | 0.00 | 47 | 1032.6 |
| 20260502001115 | 25 | 290 | 3.2 | 4.8 | 0.00 | 0.00 | 0.00 | 44 | 1032.5 |
| 20260502000613 | 25 | 204 | 0.0 | 6.4 | 0.00 | 0.00 | 0.00 | 44 | 1032.7 |
| 20260502000110 | 25 | 6 | 1.6 | 3.2 | 0.00 | 0.00 | 0.00 | 44 | 1032.6 |
| 20260501235606 | 25 | 330 | 3.2 | 11.3 | 0.00 | 0.00 | 0.00 | 46 | 1032.6 |
| 20260501235102 | 25 | 99 | 0.0 | 3.2 | 0.00 | 0.00 | 0.00 | 45 | 1032.7 |
| 20260501234557 | 25 | 41 | 0.0 | 1.6 | 0.00 | 0.00 | 0.00 | 45 | 1032.8 |
| 20260501234055 | 25 | 321 | 3.2 | 4.8 | 0.00 | 0.00 | 0.00 | 43 | 1032.9 |
| 20260501233553 | 25 | 45 | 1.6 | 6.4 | 0.00 | 0.00 | 0.00 | 44 | 1032.8 |
| 20260501233050 | 25 | 358 | 4.8 | 11.3 | 0.00 | 0.00 | 0.00 | 42 | 1032.9 |
| 20260501232546 | 25 | 145 | 0.0 | 3.2 | 0.00 | 0.00 | 0.00 | 44 | 1032.9 |
| 20260501232044 | 25 | 347 | 6.4 | 9.7 | 0.00 | 0.00 | 0.00 | 41 | 1033.0 |
| 20260501231541 | 24 | 20 | 3.2 | 12.9 | 0.00 | 0.00 | 0.00 | 42 | 1033.0 |
| 20260501231039 | 25 | 13 | 4.8 | 6.4 | 0.00 | 0.00 | 0.00 | 40 | 1032.9 |
| 20260501230538 | 25 | 116 | 1.6 | 3.2 | 0.00 | 0.00 | 0.00 | 42 | 1033.1 |
| 20260501230035 | 25 | 334 | 4.8 | 9.7 | 0.00 | 0.00 | 0.00 | 43 | 1033.0 |
| 20260501225533 | 25 | 24 | 6.4 | 11.3 | 0.00 | 0.00 | 0.00 | 41 | 1033.1 |
| 20260501225029 | 25 | 351 | 3.2 | 6.4 | 0.00 | 0.00 | 0.00 | 42 | 1033.3 |
| 20260501224526 | 25 | 351 | 1.6 | 4.8 | 0.00 | 0.00 | 0.00 | 40 | 1033.1 |
| 20260501224023 | 24 | 291 | 3.2 | 6.4 | 0.00 | 0.00 | 0.00 | 41 | 1033.3 |
| 20260501223520 | 25 | 11 | 11.3 | 12.9 | 0.00 | 0.00 | 0.00 | 40 | 1033.4 |
| 20260501223016 | 24 | 263 | 1.6 | 11.3 | 0.00 | 0.00 | 0.00 | 42 | 1033.7 |
| 20260501222512 | 24 | 11 | 3.2 | 11.3 | 0.00 | 0.00 | 0.00 | 43 | 1033.8 |
| 20260501222009 | 25 | 338 | 4.8 | 9.7 | 0.00 | 0.00 | 0.00 | 40 | 1033.8 |
| 20260501221505 | 25 | 1 | 4.8 | 12.9 | 0.00 | 0.00 | 0.00 | 41 | 1033.7 |
| 20260501221004 | 23 | 339 | 4.8 | 11.3 | 0.00 | 0.00 | 0.00 | 42 | 1033.7 |
| 20260501220501 | 24 | 5 | 6.4 | 12.9 | 0.00 | 0.00 | 0.00 | 42 | 1033.8 |
| 20260501215957 | 23 | 22 | 3.2 | 9.7 | 0.00 | 0.00 | 0.00 | 43 | 1033.8 |
| 20260501215454 | 24 | 328 | 1.6 | 6.4 | 0.00 | 0.00 | 0.00 | 43 | 1034.0 |
| 20260501214949 | 23 | 27 | 3.2 | 9.7 | 0.00 | 0.00 | 0.00 | 44 | 1034.0 |
| 20260501214445 | 23 | 8 | 3.2 | 12.9 | 0.00 | 0.00 | 0.00 | 43 | 1034.1 |
| 20260501213940 | 23 | 16 | 1.6 | 12.9 | 0.00 | 0.00 | 0.00 | 45 | 1034.1 |
| 20260501213438 | 23 | 28 | 4.8 | 9.7 | 0.00 | 0.00 | 0.00 | 45 | 1034.0 |
| 20260501212933 | 23 | 331 | 3.2 | 9.7 | 0.00 | 0.00 | 0.00 | 45 | 1034.2 |
| 20260501212430 | 23 | 43 | 1.6 | 12.9 | 0.00 | 0.00 | 0.00 | 49 | 1034.0 |
| 20260501211927 | 24 | 301 | 3.2 | 9.7 | 0.00 | 0.00 | 0.00 | 45 | 1034.1 |
| 20260501211424 | 23 | 56 | 1.6 | 4.8 | 0.00 | 0.00 | 0.00 | 44 | 1033.9 |
| 20260501210922 | 23 | 3 | 11.3 | 12.9 | 0.00 | 0.00 | 0.00 | 43 | 1034.0 |
| 20260501210418 | 23 | 23 | 6.4 | 11.3 | 0.00 | 0.00 | 0.00 | 45 | 1034.2 |
| 20260501205915 | 23 | 282 | 0.0 | 6.4 | 0.00 | 0.00 | 0.00 | 43 | 1034.3 |
| 20260501205412 | 23 | 332 | 1.6 | 4.8 | 0.00 | 0.00 | 0.00 | 44 | 1034.0 |
| 20260501204909 | 23 | 163 | 3.2 | 6.4 | 0.00 | 0.00 | 0.00 | 45 | 1034.0 |
| 20260501204405 | 24 | 32 | 4.8 | 9.7 | 0.00 | 0.00 | 0.00 | 42 | 1034.2 |
| 20260501203901 | 24 | 250 | 3.2 | 6.4 | 0.00 | 0.00 | 0.00 | 43 | 1034.3 |
| 20260501203358 | 23 | 71 | 1.6 | 9.7 | 0.00 | 0.00 | 0.00 | 44 | 1034.4 |
| 20260501202856 | 23 | 38 | 3.2 | 14.5 | 0.00 | 0.00 | 0.00 | 44 | 1034.3 |
| 20260501202352 | 23 | 57 | 0.0 | 3.2 | 0.00 | 0.00 | 0.00 | 47 | 1034.4 |
| 20260501201849 | 22 | 2 | 4.8 | 14.5 | 0.00 | 0.00 | 0.00 | 44 | 1034.3 |
| 20260501201346 | 22 | 32 | 6.4 | 11.3 | 0.00 | 0.00 | 0.00 | 43 | 1034.4 |
| 20260501200842 | 22 | 4 | 6.4 | 9.7 | 0.00 | 0.00 | 0.00 | 45 | 1034.5 |
| 20260501200340 | 22 | 330 | 4.8 | 9.7 | 0.00 | 0.00 | 0.00 | 46 | 1034.5 |
| 20260501195838 | 23 | 23 | 0.0 | 9.7 | 0.00 | 0.00 | 0.00 | 46 | 1034.3 |
| 20260501195333 | 22 | 89 | 0.0 | 4.8 | 0.00 | 0.00 | 0.00 | 50 | 1034.3 |
| 20260501194829 | 22 | 22 | 4.8 | 9.7 | 0.00 | 0.00 | 0.00 | 47 | 1034.7 |
| 20260501194325 | 22 | 291 | 3.2 | 11.3 | 0.00 | 0.00 | 0.00 | 47 | 1034.5 |
| 20260501193822 | 22 | 37 | 6.4 | 14.5 | 0.00 | 0.00 | 0.00 | 48 | 1034.6 |
| 20260501193321 | 22 | 10 | 6.4 | 12.9 | 0.00 | 0.00 | 0.00 | 49 | 1034.6 |
| 20260501192818 | 22 | 31 | 6.4 | 16.1 | 0.00 | 0.00 | 0.00 | 48 | 1034.4 |
| 20260501192315 | 22 | 49 | 6.4 | 17.7 | 0.00 | 0.00 | 0.00 | 49 | 1034.7 |
| 20260501191811 | 22 | 23 | 9.7 | 12.9 | 0.00 | 0.00 | 0.00 | 47 | 1034.5 |
| 20260501191309 | 22 | 24 | 3.2 | 9.7 | 0.00 | 0.00 | 0.00 | 47 | 1034.7 |
| 20260501190805 | 21 | 19 | 8.0 | 11.3 | 0.00 | 0.00 | 0.00 | 48 | 1034.8 |
| 20260501190301 | 21 | 330 | 4.8 | 6.4 | 0.00 | 0.00 | 0.00 | 49 | 1034.8 |
| 20260501185757 | 21 | 353 | 9.7 | 11.3 | 0.00 | 0.00 | 0.00 | 50 | 1034.8 |
| 20260501185253 | 21 | 300 | 6.4 | 6.4 | 0.00 | 0.00 | 0.00 | 50 | 1034.8 |
| 20260501184749 | 21 | 344 | 3.2 | 9.7 | 0.00 | 0.00 | 0.00 | 51 | 1034.8 |
| 20260501184244 | 21 | 345 | 8.0 | 11.3 | 0.00 | 0.00 | 0.00 | 51 | 1035.0 |
| 20260501183740 | 21 | 58 | 3.2 | 6.4 | 0.00 | 0.00 | 0.00 | 50 | 1034.9 |